Skip Navigation Links weather.gov 
NOAA logo-Select to go to the NOAA homepage NDBC Title GraphicClick to go to NDBC home page   Select to go to the NWS homepage
Home About Us Contact Us
 
 
    
    Station List

 Data Access
    Mobile Access
    Classic Maps
         Recent
         DART®
    Obs Search
    Ship Obs Report
    BuoyCAMs
    TAO
    DODS
    OceanSITES
    HF Radar
    OSMC
    Dial-A-Buoy
    RSS Feeds Image indicating link to RSS feed access page
    Web Widget
    Email Access
    Web Data Guide
    Maintenance Schedule
    Station Status Report

 Program Info
    TAO
    DART®
    VOS
    IOOS®

 Publications
    NDBC PEA
    NDBC FONSI
    NDBC DQC Handbook

 FAQ
 Visitor Information
 
USA.gov is the U.S. government's official web portal to all federal, state and local government web resources and services.

Station CPXC1 - Cal Poly Pier, CA Image indicating link to RSS feed of recent meteorological observations for station CPXC1

Owned and maintained by California Polytechnic State University
Coastal Marine Station
35.170 N 120.741 W (35°10'12" N 120°44'27" W)

Site elevation: sea level
Air temp height: 4 m above site elevation
Anemometer height: 4 m above site elevation
Barometer elevation: 4 m above mean sea level

Search And Rescue (SAR) Data

Meteorological Observations from Nearby Stations and Ships Image indicating link to RSS feed of recent meteorological observations near station CPXC1

Regional HF Radar Surface Current Observations

Station CPXC1
Large icon indicates selected station.
yellow diamond Stations with recent data
red diamond Stations with no data in last 8 hours
     (24 hours for tsunami stations)


Conditions at CPXC1 as of
(9:56 pm PDT on 06/18/2018)
0456 GMT on 06/19/2018:
     

Click on the graph icon in the table below to see a time series plot of the last five days of that observation.

5-day plot - Wind Direction Wind Direction (WDIR): WNW ( 290 deg true )
5-day plot - Wind Speed Wind Speed (WSPD): 2.9 kts
5-day plot - Wind Gust Wind Gust (GST): 4.1 kts
5-day plot - Atmospheric Pressure Atmospheric Pressure (PRES): 30.04 in
5-day plot - Air Temperature Air Temperature (ATMP): 56.8 °F
5-day plot - Dew Point Dew Point (DEWP): 51.6 °F
5-day plot - Wind Speed at 10 Meters Wind Speed at 10 meters (WSPD10M): 3.9 kts
5-day plot - Wind Speed at 10 Meters Wind Speed at 20 meters (WSPD20M): 3.9 kts
5-day plot - Wind Speed, Wind Gust and Atmospheric Pressure Combined plot of Wind Speed, Gust, and Air Pressure
Previous observations
5-day plot - Wind Direction 5-day plot - Wind Speed 5-day plot - Wind Gust 5-day plot - Wave Height 5-day plot - Dominant Wave Period 5-day plot - Average Period 5-day plot - Mean Wave Direction 5-day plot - Atmospheric Pressure 5-day plot - Pressure Tendency 5-day plot - Air Temperature 5-day plot - Water Temperature 5-day plot - Dew Point 5-day plot - Salinity 5-day plot - Visibility 5-day plot - Tide (above MLLW)
MM DD TIME
(PDT)
WDIR WSPD
kts
GST
kts
WVHT
ft
DPD
sec
APD
sec
MWD PRES
in
PTDY
in
ATMP
°F
WTMP
°F
DEWP
°F
SAL
psu
VIS
nmi
TIDE
ft
0618 9:46 pm NE 1.0 1.9----30.05- 57.6- 52.0---
0618 9:44 pm NE 1.9 2.9----30.05- 57.6- 51.8---
0618 9:42 pm NE 2.9 4.1----30.05- 57.6- 52.0---
0618 9:40 pm NE 2.9 4.1----30.04- 57.6- 52.0---
0618 9:38 pm NE 2.9 4.1----30.04- 57.6- 51.8---
0618 9:36 pm NE 4.1 5.1----30.04- 57.6- 51.8---
0618 9:34 pm NE 4.1 5.1----30.04- 57.6- 52.0---
0618 9:32 pm NE 4.1 5.1----30.04- 57.7- 52.0---
0618 9:30 pmENE 4.1 5.1----30.04- 57.9- 52.5---
0618 9:28 pmENE 4.1 5.1----30.04- 57.7- 52.3---
0618 9:26 pm NE 4.1 5.1----30.04- 57.6- 52.2---
0618 9:24 pmNNE 1.9 4.1----30.04- 57.4- 52.2---
0618 9:22 pm N 1.0 1.9----30.04- 57.2- 51.8---
0618 9:20 pmNNW 2.9 4.1----30.04- 57.2- 51.8---
0618 9:18 pm NW 1.9 2.9----30.04- 57.4- 52.0---
0618 9:16 pm NW 2.9 4.1----30.04- 57.4- 51.8---
0618 9:14 pm NW 4.1 5.1----30.04- 57.4- 51.8---
0618 9:12 pmNNW 2.9 4.1----30.04- 57.6- 51.8---
0618 9:10 pm NW 2.9 5.1----30.04- 57.6- 51.8---
0618 9:08 pm NW 5.1 7.0----30.04- 57.6- 51.6---
0618 9:06 pm NW 5.1 7.0----30.04- 57.7- 51.8---
0618 9:04 pm NW 5.1 5.1----30.04- 57.7- 51.6---
0618 9:02 pm NW 4.1 5.1----30.03- 57.9- 51.8---
0618 9:00 pm NW 4.1 5.1----30.03- 57.9- 51.6---
0618 8:58 pmWNW 4.1 4.1----30.03- 57.9- 51.4---
0618 8:56 pmWNW 2.9 4.1----30.03- 58.1- 51.8---
0618 8:54 pmWNW 4.1 5.1----30.03- 58.1- 51.8---
0618 8:52 pmWNW 4.1 4.1----30.03- 58.1- 51.6---
0618 8:50 pmWNW 4.1 5.1----30.03- 57.9- 51.6---
0618 8:48 pmWNW 4.1 5.1----30.03+0.04 57.9- 51.6---
0618 8:46 pmWNW 4.1 5.1----30.03- 57.9- 51.6---
0618 8:44 pmWNW 4.1 5.1----30.03- 58.1- 51.6---
0618 8:42 pmWNW 4.1 6.0----30.03- 58.1- 51.6---
0618 8:40 pmWNW 4.1 4.1----30.03- 58.1- 51.6---
0618 8:38 pmWNW 4.1 5.1----30.03- 58.1- 51.8---
0618 8:36 pmWNW 4.1 5.1----30.02- 58.1- 51.8---
0618 8:34 pmWNW 2.9 4.1----30.02- 58.3- 52.0---
0618 8:32 pmWNW 2.9 4.1----30.02- 58.3- 51.8---
0618 8:30 pmWNW 4.1 5.1----30.02- 58.5- 51.8---
0618 8:28 pmWNW 5.1 6.0----30.02- 58.5- 51.4---
0618 8:26 pmWNW 6.0 7.0----30.02- 58.6- 51.6---
0618 8:24 pmWNW 6.0 7.0----30.02- 58.6- 51.6---
0618 8:22 pmWNW 6.0 6.0----30.02- 58.8- 51.8---
0618 8:20 pmWNW 7.0 7.0----30.02- 58.8- 51.6---
0618 8:18 pmWNW 7.0 7.0----30.02- 59.0- 51.6---
0618 8:16 pmWNW 6.0 7.0----30.02- 59.2- 51.6---
0618 8:14 pmWNW 6.0 7.0----30.02- 59.2- 51.6---
0618 8:12 pmWNW 6.0 7.0----30.02- 59.4- 51.8---
0618 8:10 pmWNW 8.0 8.9----30.01- 59.4- 51.6---
0618 8:08 pmWNW 6.0 7.0----30.01- 59.7- 51.8---
0618 8:06 pm NW 6.0 7.0----30.02- 59.9- 51.8---
0618 8:04 pmWNW 5.1 7.0----30.02- 60.1- 51.8---
0618 8:02 pm NW 4.1 5.1----30.02- 60.3- 51.8---
0618 8:00 pmWNW 2.9 5.1----30.02- 60.6- 52.0---
0618 7:58 pmWNW 1.9 2.9----30.02- 60.8- 52.0---
0618 7:56 pm W 1.9 1.9----30.02- 61.0- 52.2---
0618 7:54 pmWSW 2.9 5.1----30.02- 61.0- 52.2---
0618 7:52 pm W 2.9 5.1----30.02- 60.8- 52.0---
0618 7:50 pm W 4.1 5.1----30.02- 60.6- 52.0---
0618 7:48 pm W 2.9 5.1----30.02+0.03 60.6- 51.8---
0618 7:46 pm W 2.9 4.1----30.02- 60.6- 51.8---
0618 7:44 pm W 4.1 5.1----30.02- 60.8- 51.8---
0618 7:42 pm W 4.1 6.0----30.02- 61.0- 51.8---
0618 7:40 pmWSW 4.1 5.1----30.02- 61.0- 51.8---
0618 7:38 pmWSW 5.1 7.0----30.02- 61.0- 51.6---
0618 7:36 pmWSW 7.0 8.0----30.02- 61.2- 51.8---
0618 7:34 pmWSW 7.0 8.0----30.01- 61.0- 51.4---
0618 7:32 pmWSW 5.1 7.0----30.01- 61.5- 51.6---
0618 7:30 pmWSW 5.1 6.0----30.02- 61.9- 51.4---
0618 7:28 pmWSW 5.1 7.0----30.02- 62.2- 51.4---
0618 7:26 pm SW 2.9 4.1----30.02- 62.6- 51.6---
0618 7:24 pmWSW 2.9 5.1----30.02- 62.8- 51.6---
0618 7:22 pm SW 4.1 5.1----30.01- 62.6- 51.6---
0618 7:20 pmSSW 2.9 5.1----30.01- 62.8- 51.6---
0618 7:18 pmSSW 4.1 5.1----30.01- 62.8- 51.3---
0618 7:16 pm S 2.9 5.1----30.01- 63.5- 51.8---
0618 7:14 pm S 1.9 2.9----30.01- 63.9- 51.8---
0618 7:12 pmSSW 2.9 5.1----30.01- 63.7- 51.8---
0618 7:10 pmSSW 5.1 5.1----30.01- 63.5- 51.4---
0618 7:08 pmSSW 1.9 5.1----30.01- 64.0- 51.8---
0618 7:06 pmSSW 1.9 4.1----30.01- 64.0- 51.8---
0618 7:04 pmSSE 2.9 4.1----30.01- 64.4- 52.2---
0618 7:02 pmESE 1.9 4.1----30.01- 64.8- 52.0---
0618 7:00 pm N 1.0 2.9----30.01- 64.9- 52.5---
0618 6:58 pm W 1.9 4.1----30.01- 64.8- 52.5---
0618 6:56 pmSSW 1.9 2.9----30.01- 64.6- 52.9---
0618 6:54 pm S 1.9 4.1----30.01- 64.2- 52.3---
0618 6:52 pm SW 5.1 7.0----30.01- 63.9- 52.2---
0618 6:50 pmWSW 7.0 8.9----30.01- 63.7- 52.0---
0618 6:48 pm W 7.0 9.9----30.01+0.00 63.9- 52.0---
0618 6:46 pm W 4.1 7.0----30.01- 64.0- 52.5---
0618 6:44 pm W 7.0 8.9----30.01- 63.9- 52.2---
0618 6:42 pmWNW 2.9 7.0----30.01- 64.6- 53.1---
0618 6:40 pm S 2.9 4.1----30.01- 64.6- 52.7---
0618 6:38 pmSSW 2.9 5.1----30.00- 64.4- 52.7---
0618 6:36 pm SW 4.1 7.0----30.00- 64.2- 52.5---
0618 6:34 pmWSW 2.9 7.0----30.00- 64.4- 52.9---
0618 6:32 pm S 1.9 4.1----30.00- 64.4- 52.7---
0618 6:30 pmNNW 4.1 7.0----30.00- 64.4- 53.1---
0618 6:28 pmWNW 7.0 9.9----30.00- 64.4- 52.7---
0618 6:26 pmWNW 7.0 8.9----30.00- 64.2- 52.9---
0618 6:24 pmWNW 9.9 12.0----30.00- 64.0- 52.3---
0618 6:22 pmWNW 9.9 11.1----30.00- 64.0- 52.3---
0618 6:20 pm W 8.9 13.0----30.00- 64.0- 52.3---
0618 6:18 pm W 8.0 15.0----30.00- 64.8- 52.5---
0618 6:16 pmWNW 12.0 13.0----30.00- 64.9- 52.2---
0618 6:14 pmWNW 7.0 13.0----30.00- 64.4- 52.9---
0618 6:12 pmWNW 6.0 9.9----30.00- 64.6- 52.9---
0618 6:10 pmWNW 9.9 13.0----30.00- 64.4- 52.3---
0618 6:08 pm W 12.0 14.0----29.99- 64.2- 52.7---
0618 6:06 pm W 11.1 13.0----29.99- 63.7- 52.7---
0618 6:04 pm W 12.0 15.0----30.00- 63.5- 52.7---
0618 6:02 pm W 13.0 15.0----29.99- 63.1- 52.3---
0618 6:00 pm W 15.0 18.1----29.99- 63.3- 52.3---
0618 5:58 pm W 15.9 19.0----29.99- 63.0- 52.2---
0618 5:56 pm W 17.1 19.0----29.99- 62.8- 51.6---
0618 5:54 pm W 14.0 19.0----29.99- 63.3- 52.2---
0618 5:52 pm W 12.0 15.9----29.99- 63.1- 52.0---
0618 5:50 pm W 17.1 19.0----29.99- 63.7- 52.2---
0618 5:48 pm W 17.1 21.0----29.99-0.01 63.3- 52.3---
0618 5:46 pm W 15.0 18.1----29.99- 63.5- 52.3---
0618 5:44 pm W 15.9 18.1----29.99- 63.5- 52.5---
0618 5:42 pm W 14.0 15.9----29.99- 63.0- 52.3---
0618 5:40 pm W 15.0 17.1----29.99- 63.3- 52.2---
0618 5:38 pm W 15.0 17.1----29.99- 63.5- 52.5---
0618 5:36 pm W 15.0 18.1----29.99- 63.1- 52.5---
0618 5:34 pm W 15.9 19.0----29.99- 63.5- 52.2---
0618 5:32 pm W 14.0 15.9----29.99- 63.7- 52.0---
0618 5:30 pm W 14.0 15.9----29.99- 64.2- 52.9---
0618 5:28 pm W 17.1 19.0----29.99- 63.7- 52.5---
0618 5:26 pm W 14.0 19.0----29.99- 63.7- 52.3---
0618 5:24 pmWNW 14.0 18.1----30.00- 64.0- 52.7---
0618 5:22 pm W 12.0 17.1----29.99- 63.9- 52.7---
0618 5:20 pm W 15.0 18.1----30.00- 63.7- 52.3---
0618 5:18 pm W 14.0 15.9----29.99- 64.0- 52.3---
0618 5:16 pm W 14.0 15.9----29.99- 64.4- 52.9---
0618 5:14 pm W 15.0 17.1----29.99- 64.0- 52.5---
0618 5:12 pm W 15.0 17.1----29.99- 64.2- 52.2---
0618 5:10 pm W 15.9 19.0----29.99- 64.9- 52.3---
0618 5:08 pm W 15.0 17.1----29.99- 64.0- 52.2---
0618 5:06 pm W 15.0 18.1----29.99- 64.9- 52.0---
0618 5:04 pm W 15.0 18.1----29.99- 65.3- 52.2---
0618 5:00 pm W 14.0 15.9----29.99- 65.3- 52.7---
0618 4:58 pm W 9.9 15.9----29.99- 65.3- 52.7---
0618 4:56 pm W 13.0 15.0----30.00- 65.3- 52.9---
0618 4:54 pm W 12.0 15.0----30.00- 64.9- 52.5---
0618 4:52 pm W 12.0 15.0----30.00- 64.9- 52.7---
0618 4:50 pm W 13.0 15.0----30.00- 64.8- 52.7---
0618 4:48 pm W 15.0 18.1----30.00- 64.4- 52.2---
0618 4:46 pm W 15.0 18.1----30.00- 64.4- 52.0---
0618 4:44 pm W 15.0 18.1----30.00- 64.8- 52.2---
0618 4:42 pm W 15.9 18.1----30.00- 64.9- 52.0---
0618 4:40 pm W 14.0 15.9----30.00- 65.8- 52.9---
0618 4:38 pm W 15.0 18.1----30.00- 64.9- 52.3---
0618 4:36 pm W 17.1 19.0----30.00- 64.2- 52.0---
0618 4:34 pm W 17.1 19.0----30.00- 64.8- 52.5---
0618 4:32 pm W 14.0 17.1----30.00- 64.4- 52.2---
0618 4:30 pm W 14.0 15.9----30.00- 64.4- 52.0---
0618 4:28 pm W 13.0 15.9----30.00- 64.9- 52.2---
0618 4:26 pm W 13.0 15.0----30.00- 65.3- 52.5---
0618 4:24 pm W 13.0 15.0----30.00- 64.8- 52.2---
0618 4:22 pm W 15.0 17.1----30.00- 65.3- 52.2---
0618 4:20 pm W 12.0 15.9----30.00- 65.7- 52.5---
0618 4:18 pm W 13.0 15.9----30.00- 65.8- 53.1---
0618 4:16 pm W 11.1 15.9----30.00- 65.1- 52.7---
0618 4:14 pm W 8.9 9.9----30.00- 65.1- 53.1---
0618 4:12 pm W 9.9 12.0----30.01- 64.9- 52.5---
0618 4:10 pm W 11.1 13.0----30.01- 64.9- 52.7---
0618 4:08 pm W 12.0 15.0----30.00- 64.9- 52.5---
0618 4:06 pm W 13.0 15.9----30.00- 64.6- 52.5---
0618 4:04 pm W 12.0 15.9----30.00- 64.2- 52.5---
0618 4:02 pm W 13.0 15.9----30.01- 64.2- 52.2---
0618 4:00 pm W 13.0 18.1----30.01- 64.4- 51.8---
0618 3:58 pm W 13.0 18.1----30.00- 65.3- 52.7---
0618 3:56 pm W 13.0 18.1----30.01- 65.1- 51.8---
0618 3:54 pm W 12.0 21.0----30.00- 64.9- 51.8---
0618 3:52 pmWSW 11.1 19.0----30.01- 65.3- 51.6---
0618 3:50 pm W 9.9 20.0----30.01- 66.4- 52.2---
0618 3:48 pmWSW 8.9 15.9----30.01-0.01 67.1- 52.9---
0618 3:46 pm W 9.9 15.9----30.01- 66.4- 52.3---
0618 3:44 pm W 11.1 15.9----30.01- 66.0- 52.2---
0618 3:42 pm W 9.9 15.9----30.01- 66.9- 53.2---
0618 3:40 pm W 12.0 15.0----30.01- 65.8- 52.7---
0618 3:38 pm W 12.0 15.9----30.01- 65.7- 52.9---
0618 3:36 pm W 12.0 15.9----30.01- 65.5- 52.3---
0618 3:34 pm W 14.0 18.1----30.01- 64.8- 51.8---
0618 3:32 pm W 14.0 19.0----30.01- 65.8- 53.2---
0618 3:30 pm W 15.0 18.1----30.01- 65.5- 52.3---
0618 3:28 pm W 11.1 19.0----30.01- 65.8- 52.3---
0618 3:26 pm W 9.9 15.0----30.01- 65.8- 52.7---
0618 3:24 pm W 12.0 15.9----30.01- 66.0- 52.7---
0618 3:22 pm W 11.1 17.1----30.01- 66.4- 52.2---
0618 3:20 pm W 9.9 12.0----30.01- 66.6- 53.1---
0618 3:18 pm W 11.1 15.0----30.01- 66.4- 52.0---
0618 3:16 pm W 8.0 13.0----30.01- 66.9- 52.9---
0618 3:14 pm W 8.0 9.9----30.01- 66.6- 52.7---
0618 3:12 pm W 9.9 15.0----30.01- 67.1- 52.5---
0618 3:10 pm W 9.9 13.0----30.00- 67.5- 52.2---
0618 3:08 pmWSW 5.1 8.0----30.01- 68.4- 52.9---
0618 3:06 pmWSW 6.0 8.0----30.01- 68.9- 53.1---
0618 3:04 pmWSW 7.0 8.9----30.00- 68.2- 52.7---
0618 3:02 pmWSW 6.0 8.9----30.00- 68.0- 52.3---
0618 3:00 pmWSW 5.1 9.9----30.00- 68.9- 52.9---
0618 2:58 pmWSW 5.1 8.9----30.00- 69.3- 53.2---
0618 2:56 pmWSW 8.0 9.9----30.00- 68.0- 52.3---
0618 2:54 pm W 7.0 8.9----30.00- 69.3- 53.4---
0618 2:52 pm W 8.9 13.0----30.00- 68.2- 52.7---
0618 2:50 pm W 7.0 8.9----30.00- 69.3- 53.2---
0618 2:48 pmWSW 7.0 8.9----30.00-0.03 68.5- 52.7---
0618 2:46 pmWSW 8.0 9.9----30.00- 68.9- 53.1---
0618 2:44 pmWSW 8.9 11.1----30.00- 68.9- 53.2---
0618 2:42 pmWSW 8.9 12.0----30.00- 68.5- 52.9---
0618 2:40 pmWSW 7.0 9.9----30.00- 68.5- 52.5---
0618 2:38 pmWSW 4.1 8.9----30.00- 69.3- 53.1---
0618 2:36 pmWSW 1.9 4.1----30.00- 69.4- 53.4---
0618 2:34 pm W 4.1 7.0----30.00- 69.3- 53.4---
0618 2:32 pm W 7.0 9.9----30.00- 68.9- 53.2---
0618 2:30 pmWSW 5.1 8.0----30.00- 68.7- 53.2---
0618 2:28 pmWSW 5.1 7.0----30.00- 68.7- 53.1---
0618 2:26 pm SW 2.9 5.1----30.00- 68.9- 53.6---
0618 2:24 pm SW 4.1 5.1----30.00- 68.2- 53.1---
0618 2:22 pm W 6.0 8.9----30.00- 68.0- 52.7---
0618 2:20 pm W 4.1 8.9----30.00- 68.7- 52.9---
0618 2:18 pmWSW 2.9 6.0----30.00- 69.1- 53.4---
0618 2:16 pm S 1.9 4.1----30.00- 68.9- 54.1---
0618 2:14 pm SW 6.0 11.1----30.00- 68.4- 53.6---
0618 2:12 pm W 8.9 13.0----30.00- 67.8- 53.4---
0618 2:10 pm W 11.1 17.1----30.00- 67.5- 53.2---
0618 2:08 pmWSW 8.0 15.0----30.01- 67.3- 53.4---
0618 2:06 pm W 15.9 18.1----30.01- 66.4- 52.7---
0618 2:04 pm W 11.1 17.1----30.00- 66.4- 52.0---
0618 2:02 pmWSW 5.1 8.9----30.00- 68.5- 53.4---
0618 2:00 pm W 11.1 15.0----30.00- 67.8- 53.2---
0618 1:58 pm W 8.0 14.0----30.00- 68.2- 53.4---
0618 1:56 pm W 8.0 11.1----30.01- 67.5- 53.2---
0618 1:54 pm W 11.1 17.1----30.01- 67.8- 53.8---
0618 1:52 pm W 11.1 15.9----30.00- 67.5- 53.6---
0618 1:50 pm W 11.1 18.1----30.01- 68.2- 54.1---
0618 1:48 pm W 14.0 19.0----30.01-0.04 66.4- 53.1---
0618 1:46 pm W 15.0 18.1----30.00- 66.9- 54.0---
0618 1:44 pm W 14.0 15.9----30.00- 66.2- 53.4---
0618 1:42 pm W 14.0 17.1----30.01- 65.8- 52.9---
0618 1:40 pm W 15.0 18.1----30.01- 65.3- 52.9---
0618 1:38 pm W 15.0 18.1----30.01- 65.3- 52.7---
0618 1:36 pm W 15.0 19.0----30.01- 65.8- 52.7---
0618 1:34 pm W 14.0 18.1----30.01- 66.9- 53.8---
0618 1:32 pm W 15.0 15.9----30.01- 66.2- 53.2---
0618 1:30 pm W 14.0 18.1----30.01- 65.8- 52.9---
0618 1:28 pm W 13.0 18.1----30.01- 66.7- 53.6---
0618 1:26 pm W 14.0 19.0----30.01- 65.8- 52.3---
0618 1:24 pm W 13.0 18.1----30.01- 66.4- 52.7---
0618 1:22 pm W 9.9 14.0----30.01- 66.9- 52.3---
0618 1:20 pm W 6.0 12.0----30.02- 68.5- 52.9---
0618 1:18 pm W 5.1 7.0----30.01- 69.3- 53.2---
0618 1:16 pmWSW 4.1 8.9----30.01- 69.3- 53.2---
0618 1:14 pmWSW 5.1 8.9----30.01- 69.1- 52.5---
0618 1:12 pmWSW 5.1 7.0----30.02- 69.4- 52.2---
0618 1:10 pmWSW 1.9 6.0----30.02- 70.3- 52.7---
0618 1:08 pm NE 1.0 1.9----30.02- 71.8- 53.8---
0618 1:06 pm NE 1.0 1.9----30.02- 72.0- 54.0---
0618 1:04 pm- 0.0 1.9----30.02- 71.8- 54.9---
0618 1:02 pm- 0.0 1.9----30.02- 71.2- 54.7---
0618 1:00 pmWNW 1.0 1.9----30.02- 70.9- 54.5---
061812:58 pm NW 1.0 1.9----30.02- 70.7- 54.7---
061812:56 pmSSE 1.0 1.9----30.02- 70.3- 54.7---
061812:54 pm W 1.0 4.1----30.02- 69.4- 54.5---
061812:52 pmWSW 2.9 5.1----30.02- 69.1- 54.1---
061812:50 pmWSW 5.1 7.0----30.01- 68.4- 54.0---
061812:48 pm W 7.0 8.9----30.02-0.04 68.2- 54.0---
061812:46 pm W 8.0 12.0----30.02- 67.6- 53.8---
061812:44 pm W 8.9 11.1----30.02- 67.8- 54.0---
061812:42 pm W 8.9 13.0----30.02- 67.1- 53.6---
061812:40 pm W 9.9 15.0----30.02- 67.5- 54.0---
061812:38 pm W 11.1 14.0----30.02- 66.4- 54.0---
061812:36 pm W 12.0 14.0----30.02- 66.0- 53.6---
061812:34 pm W 12.0 14.0----30.02- 66.0- 53.8---
061812:32 pm W 14.0 15.9----30.02- 65.8- 53.6---
061812:30 pm W 14.0 18.1----30.02- 65.7- 53.4---
061812:28 pm W 15.0 18.1----30.02- 65.7- 53.6---
061812:26 pm W 14.0 18.1----30.02- 65.3- 53.6---
061812:24 pm W 17.1 20.0----30.02- 65.1- 53.8---
061812:22 pm W 17.1 21.0----30.02- 64.4- 53.2---
061812:20 pm W 17.1 20.0----30.02- 64.8- 53.6---
061812:18 pm W 17.1 20.0----30.02- 64.6- 53.2---
061812:16 pm W 17.1 20.0----30.02- 64.2- 53.1---
061812:14 pm W 18.1 21.0----30.02- 64.8- 53.2---
061812:12 pm W 17.1 21.0----30.02- 64.4- 52.7---
061812:10 pm W 17.1 21.0----30.02- 64.6- 52.7---
061812:08 pm W 14.0 21.0----30.02- 64.8- 53.2---
061812:06 pm W 15.9 19.0----30.02- 65.1- 53.8---
061812:04 pm W 17.1 20.0----30.03- 64.9- 53.6---
061812:02 pm W 17.1 21.0----30.02- 64.6- 53.1---
061812:00 pm W 17.1 20.0----30.02- 64.8- 53.2---
061811:58 am W 15.0 18.1----30.03- 64.4- 53.1---
061811:56 am W 15.9 20.0----30.03- 64.4- 53.1---
061811:54 am W 17.1 20.0----30.03- 64.0- 52.9---
061811:52 am W 15.9 21.0----30.03- 64.9- 53.6---
061811:50 am W 15.9 19.0----30.03- 64.8- 53.2---
061811:48 am W 14.0 17.1----30.03-0.03 64.8- 53.2---
061811:46 am W 15.9 19.0----30.03- 64.8- 54.0---
061811:44 am W 15.9 19.0----30.03- 63.9- 53.1---
061811:42 am W 17.1 21.0----30.03- 63.5- 53.1---
061811:40 am W 15.9 19.0----30.03- 64.2- 53.2---
061811:38 am W 14.0 17.1----30.03- 63.9- 53.2---
061811:36 am W 15.0 19.0----30.03- 64.0- 53.4---
061811:34 am W 14.0 18.1----30.03- 64.4- 53.6---
061811:32 am W 15.9 19.0----30.03- 63.9- 53.4---
061811:30 am W 15.0 19.0----30.03- 63.7- 53.2---
061811:28 am W 15.0 18.1----30.03- 63.7- 53.4---
061811:26 am W 15.0 19.0----30.03- 64.0- 53.6---
061811:24 am W 14.0 18.1----30.03- 63.7- 53.2---
061811:22 am W 14.0 18.1----30.03- 63.9- 53.2---
061811:20 am W 15.0 18.1----30.03- 63.3- 53.1---
061811:18 am W 12.0 15.9----30.03- 63.9- 53.2---
061811:16 am W 13.0 18.1----30.04- 63.5- 53.6---
061811:14 am W 15.9 18.1----30.04- 63.0- 53.1---
061811:12 am W 12.0 15.9----30.04- 63.1- 53.1---
061811:10 am W 13.0 15.9----30.04- 63.5- 53.2---
061811:08 am W 11.1 15.0----30.04- 63.3- 53.2---
061811:06 am W 13.0 17.1----30.04- 63.0- 53.2---
061811:04 am W 13.0 18.1----30.04- 63.1- 53.2---
061811:02 am W 12.0 15.0----30.04- 63.3- 53.2---
061811:00 am W 13.0 15.0----30.04- 63.0- 53.1---
061810:58 am W 11.1 15.0----30.04- 63.7- 53.2---
061810:56 am W 9.9 13.0----30.04- 63.7- 53.4---
061810:54 am W 11.1 15.0----30.04- 63.5- 53.2---
061810:52 am W 8.9 13.0----30.04- 63.3- 53.2---
061810:50 am W 8.0 11.1----30.04- 63.5- 53.6---
061810:48 am W 6.0 9.9----30.04+0.00 63.1- 54.0---
061810:46 am E 2.9 9.9----30.04- 62.6- 54.0---
061810:44 amNNE 1.9 7.0----30.04- 62.2- 54.0---
061810:42 am S 5.1 8.9----30.04- 62.1- 52.9---
061810:40 amWSW 7.0 9.9----30.04- 62.6- 53.8---
061810:38 am S 2.9 8.9----30.04- 62.8- 54.0---
061810:36 am SE 1.9 4.1----30.04- 62.4- 53.8---
061810:34 amWSW 1.0 1.9----30.04- 61.9- 54.0---
061810:32 am S 1.9 4.1----30.04- 61.3- 54.0---
061810:30 am E 2.9 5.1----30.04- 60.4- 52.9---
061810:28 amESE 1.9 4.1----30.04- 60.1- 52.9---
061810:26 am E 1.9 4.1----30.04- 59.7- 52.9---
061810:24 am E 2.9 4.1----30.04- 59.2- 52.5---
061810:22 am SE 2.9 5.1----30.04- 59.2- 52.5---
061810:20 am S 1.0 1.9----30.04- 59.4- 53.6---
061810:18 am SE 2.9 4.1----30.05- 58.6- 53.1---
061810:16 amESE 2.9 4.1----30.05- 57.9- 52.3---
061810:14 amESE 4.1 5.1----30.05- 57.7- 52.3---
061810:12 amESE 4.1 4.1----30.05- 57.6- 52.2---
061810:10 amESE 2.9 4.1----30.05- 57.6- 52.3---
061810:08 amESE 4.1 5.1----30.05- 57.2- 52.0---
061810:06 amESE 4.1 5.1----30.05- 57.2- 52.0---
061810:04 amESE 4.1 5.1----30.05- 57.2- 52.2---
061810:02 amESE 4.1 5.1----30.05- 57.0- 52.0---
061810:00 amESE 4.1 5.1----30.05- 56.8- 51.8---
0618 9:58 amESE 4.1 5.1----30.05- 56.7- 51.6---
0618 9:56 amESE 5.1 6.0----30.05- 56.7- 51.8---
0618 9:54 amESE 5.1 5.1----30.05- 56.7- 51.6---
0618 9:52 amESE 5.1 5.1----30.05- 56.5- 51.3---
0618 9:50 am E 5.1 5.1----30.05- 56.5- 51.3---
0618 9:48 am E 4.1 5.1----30.05+0.02 56.5- 51.1---
0618 9:46 am E 4.1 4.1----30.05- 56.7- 51.3---
0618 9:42 am E 4.1 5.1----30.05- 56.7- 51.3---
0618 9:40 am E 4.1 5.1----30.05- 56.8- 51.4---
0618 9:38 am E 4.1 5.1----30.05- 56.7- 51.1---
0618 9:36 am E 4.1 4.1----30.05- 57.0- 51.3---
0618 9:34 am E 2.9 4.1----30.06- 57.0- 51.3---
0618 9:32 am E 2.9 4.1----30.06- 57.2- 51.4---
0618 9:30 am E 2.9 4.1----30.06- 57.2- 51.3---
0618 9:28 amESE 1.9 2.9----30.06- 57.4- 51.4---
0618 9:26 am SE 1.9 1.9----30.06- 57.4- 51.3---
0618 9:24 am SE 1.9 2.9----30.06- 57.6- 51.3---
0618 9:22 am S 1.9 2.9----30.06- 57.4- 51.1---
0618 9:20 am S 1.9 4.1----30.06- 57.4- 51.3---
0618 9:18 am S 1.9 2.9----30.06- 57.4- 51.6---
0618 9:16 am S 1.0 2.9----30.06- 57.2- 51.4---
0618 9:14 am S 1.9 2.9----30.06- 57.0- 51.1---
0618 9:12 am S 1.9 5.1----30.06- 56.7- 50.7---
0618 9:10 am S 2.9 4.1----30.06- 56.7- 50.7---
0618 9:08 am S 1.9 4.1----30.06- 56.5- 50.7---
0618 9:06 am S 1.9 4.1----30.06- 56.5- 50.7---
0618 9:04 am S 1.9 4.1----30.06- 56.5- 50.7---
0618 9:02 am S 1.9 4.1----30.06- 56.3- 50.7---
0618 9:00 am S 1.9 4.1----30.06- 56.3- 50.9---
0618 8:58 am S 2.9 4.1----30.06- 56.1- 50.7---
0618 8:56 am S 2.9 4.1----30.06- 56.1- 50.7---
0618 8:54 am S 2.9 4.1----30.06- 55.9- 50.5---
0618 8:52 am S 2.9 4.1----30.05- 55.9- 50.7---
0618 8:50 am S 1.9 2.9----30.05- 55.9- 50.9---
0618 8:48 am S 1.9 2.9----30.05+0.03 55.9- 50.9---
0618 8:46 amSSE 1.9 2.9----30.05- 55.8- 50.7---
0618 8:44 am S 1.9 2.9----30.05- 55.6- 50.5---
0618 8:42 am S 2.9 4.1----30.05- 55.6- 50.7---
0618 8:40 am S 2.9 4.1----30.05- 55.6- 50.9---
0618 8:38 am S 1.9 4.1----30.05- 55.6- 51.1---
0618 8:36 am S 2.9 4.1----30.05- 55.2- 50.9---
0618 8:34 am S 2.9 5.1----30.05- 55.2- 50.9---
0618 8:32 am S 4.1 5.1----30.05- 55.0- 50.9---
0618 8:30 am S 4.1 5.1----30.05- 54.9- 50.7---
0618 8:28 am S 4.1 6.0----30.05- 54.9- 50.7---
0618 8:26 amSSW 5.1 7.0----30.05- 54.7- 50.5---
0618 8:24 amSSW 6.0 7.0----30.05- 54.5- 50.4---
0618 8:22 amSSW 6.0 7.0----30.06- 54.7- 50.5---
0618 8:20 amSSW 6.0 8.0----30.05- 54.5- 50.4---
0618 8:18 amSSW 6.0 8.0----30.05- 54.7- 50.5---
0618 8:16 amSSW 7.0 8.9----30.05- 54.7- 50.5---
0618 8:14 am SW 7.0 8.9----30.05- 54.5- 50.2---
0618 8:12 am SW 6.0 8.9----30.05- 54.7- 50.5---
0618 8:10 am SW 7.0 9.9----30.05- 54.5- 50.2---
0618 8:08 am SW 8.0 11.1----30.05- 54.7- 50.2---
0618 8:06 am SW 8.0 11.1----30.05- 54.9- 50.4---
0618 8:04 am SW 7.0 9.9----30.05- 54.7- 50.2---
0618 8:02 am SW 8.0 11.1----30.05- 55.0- 50.4---
0618 8:00 am SW 7.0 8.9----30.05- 54.9- 49.8---
0618 7:58 am SW 6.0 7.0----30.05- 55.4- 50.2---
0618 7:56 amWSW 5.1 7.0----30.05- 55.6- 50.0---
0618 7:54 am SW 1.9 5.1----30.05- 56.3- 50.4---
0618 7:52 am- 0.0 1.9----30.05- 56.8- 50.7---
0618 7:50 am- 0.0 1.9----30.05- 56.7- 50.5---
0618 7:48 am E 1.0 1.9----30.05+0.03 56.3- 50.0---
0618 7:46 am- 0.0 1.0----30.05- 56.7- 50.7---
0618 7:44 am- 0.0 1.9----30.05- 56.5- 50.7---
0618 7:42 am- 0.0 1.0----30.05- 56.3- 50.9---
0618 7:40 am- 0.0 1.9----30.05- 55.9- 50.5---
0618 7:38 am- 0.0 1.9----30.05- 55.8- 50.7---
0618 7:36 am- 0.0 1.0----30.05- 55.2- 50.2---
0618 7:34 am NE 1.0 1.9----30.04- 54.9- 49.8---
0618 7:32 amENE 1.0 1.9----30.04- 54.5- 49.6---
0618 7:30 am- 0.0 1.9----30.04- 54.3- 49.5---
0618 7:28 am NE 1.9 4.1----30.04- 54.0- 49.1---
0618 7:26 amNNE 2.9 4.1----30.04- 53.4- 48.4---
0618 7:24 amNNE 2.9 5.1----30.04- 53.2- 48.4---
0618 7:22 am N 2.9 4.1----30.04- 53.2- 48.4---
0618 7:20 am N 2.9 4.1----30.04- 53.1- 48.2---
0618 7:18 amNNE 4.1 5.1----30.04- 52.9- 48.0---
0618 7:16 amNNE 4.1 5.1----30.04- 52.9- 48.2---
0618 7:14 amNNE 2.9 4.1----30.04- 52.9- 48.4---
0618 7:12 amNNE 2.9 4.1----30.04- 52.9- 48.7---
0618 7:10 am N 2.9 4.1----30.04- 52.7- 48.6---
0618 7:08 am N 2.9 4.1----30.04- 52.5- 48.6---
0618 7:06 am N 1.9 2.9----30.04- 52.5- 48.7---
0618 7:04 am N 1.9 2.9----30.03- 52.3- 48.7---
0618 7:02 am N 1.9 2.9----30.03- 52.2- 48.7---
0618 7:00 am N 1.9 4.1----30.03- 52.0- 48.4---
0618 6:58 am N 2.9 4.1----30.03- 51.8- 48.2---
0618 6:56 amNNE 4.1 5.1----30.03- 51.4- 47.8---
0618 6:54 amNNE 4.1 4.1----30.03- 51.3- 47.8---
0618 6:52 amNNE 4.1 5.1----30.03- 51.3- 47.8---
0618 6:50 amNNE 4.1 5.1----30.03- 50.9- 47.5---
0618 6:48 am N 5.1 7.0----30.03- 50.9- 47.7---
0618 6:46 am N 5.1 6.0----30.03- 50.7- 47.5---
0618 6:44 amNNE 5.1 6.0----30.03- 50.7- 47.7---
0618 6:42 amNNE 5.1 6.0----30.03- 50.7- 47.7---
0618 6:40 am N 5.1 6.0----30.03- 50.5- 47.7---
0618 6:38 am N 5.1 7.0----30.03- 50.4- 47.5---
0618 6:36 am N 6.0 7.0----30.03- 50.0- 47.1---
0618 6:34 am N 6.0 8.0----30.03- 49.8- 46.9---
0618 6:32 amNNE 6.0 8.0----30.03- 49.8- 46.9---
0618 6:30 am N 6.0 7.0----30.03- 49.8- 46.9---
0618 6:28 am N 5.1 7.0----30.03- 49.6- 46.9---
0618 6:26 am N 5.1 7.0----30.02- 49.8- 47.1---
0618 6:24 am N 6.0 8.0----30.03- 50.0- 47.5---
0618 6:22 am N 4.1 6.0----30.03- 50.2- 47.7---
0618 6:20 am N 4.1 6.0----30.03- 49.8- 47.3---
0618 6:18 am N 2.9 5.1----30.03- 49.6- 47.1---
0618 6:16 am N 5.1 7.0----30.03- 49.6- 46.9---
0618 6:14 am N 5.1 7.0----30.03- 49.3- 46.4---
0618 6:12 am N 5.1 6.0----30.03- 49.1- 46.2---
0618 6:10 am N 5.1 7.0----30.03- 49.1- 46.2---
0618 6:08 am N 5.1 7.0----30.03- 49.1- 46.2---
0618 6:06 am N 5.1 6.0----30.03- 49.3- 46.4---
0618 6:04 am N 2.9 5.1----30.03- 49.6- 46.8---
0618 6:02 am N 4.1 6.0----30.03- 49.5- 46.4---
0618 6:00 am N 4.1 5.1----30.03- 49.5- 46.4---
0618 5:58 am N 4.1 5.1----30.03- 49.5- 46.4---
0618 5:56 am N 5.1 6.0----30.03- 49.5- 46.4---
0618 5:54 am N 4.1 6.0----30.03- 49.6- 46.6---
0618 5:52 am N 4.1 5.1----30.02- 49.6- 46.8---
0618 5:50 am N 2.9 5.1----30.02- 49.8- 46.9---
0618 5:48 am N 2.9 5.1----30.02- 50.0- 47.1---
0618 5:46 am N 4.1 5.1----30.02- 49.8- 46.9---
0618 5:44 am N 4.1 5.1----30.02- 49.8- 46.9---
0618 5:42 am N 5.1 6.0----30.03- 49.8- 46.8---
0618 5:40 am N 5.1 6.0----30.02- 49.6- 46.8---
0618 5:38 am N 4.1 5.1----30.02- 49.8- 46.8---
0618 5:36 am N 2.9 4.1----30.02- 50.0- 46.9---
0618 5:34 am N 4.1 5.1----30.02- 49.8- 46.8---
0618 5:32 am N 4.1 6.0----30.02- 50.0- 46.9---
0618 5:30 am N 5.1 5.1----30.02- 50.0- 46.9---
0618 5:28 am N 5.1 6.0----30.02- 50.0- 46.9---
0618 5:26 am N 5.1 7.0----30.02- 50.2- 47.1---
0618 5:24 am N 5.1 7.0----30.02- 50.2- 47.1---
0618 5:22 am N 5.1 6.0----30.02- 50.0- 46.9---
0618 5:20 am N 5.1 5.1----30.02- 50.2- 47.1---
0618 5:18 am N 5.1 7.0----30.02- 50.0- 46.9---
0618 5:16 am N 6.0 7.0----30.02- 50.0- 47.1---
0618 5:14 am N 6.0 7.0----30.02- 49.8- 46.8---
0618 5:12 am N 5.1 7.0----30.02- 50.0- 46.9---
0618 5:10 am N 6.0 7.0----30.02- 50.0- 46.9---
0618 5:08 am N 6.0 7.0----30.02- 50.0- 46.9---
0618 5:06 am N 6.0 7.0----30.02- 50.2- 47.1---
0618 5:04 am N 6.0 7.0----30.02- 50.2- 47.1---
0618 5:02 am N 5.1 7.0----30.02- 50.4- 47.5---
0618 5:00 am N 4.1 5.1----30.02- 50.4- 47.3---
0618 4:58 am N 5.1 6.0----30.03- 50.4- 47.3---
0618 4:56 am N 6.0 7.0----30.02- 50.2- 47.1---
0618 4:54 am N 6.0 7.0----30.02- 50.2- 47.3---
0618 4:52 am N 5.1 7.0----30.02- 50.4- 47.5---
0618 4:50 am N 5.1 7.0----30.02- 50.2- 47.1---
0618 4:48 am N 5.1 7.0----30.02-0.02 50.2- 47.1---
0618 4:46 am N 6.0 7.0----30.03- 50.2- 47.1---
0618 4:44 am N 5.1 7.0----30.03- 50.4- 47.3---
0618 4:42 am N 5.1 7.0----30.03- 50.2- 47.1---
0618 4:40 amNNE 5.1 6.0----30.03- 50.2- 47.1---
0618 4:38 am N 5.1 7.0----30.03- 50.4- 47.3---
0618 4:36 am N 6.0 7.0----30.03- 50.4- 47.1---
0618 4:34 am N 5.1 7.0----30.03- 50.4- 47.3---
0618 4:32 am N 5.1 6.0----30.03- 50.5- 47.5---
0618 4:30 am N 5.1 6.0----30.03- 50.5- 47.3---
0618 4:28 am N 4.1 5.1----30.03- 50.4- 47.3---
0618 4:26 am N 4.1 5.1----30.03- 50.5- 47.5---
0618 4:24 am N 2.9 5.1----30.03- 50.7- 47.7---
0618 4:22 am N 2.9 4.1----30.03- 50.7- 47.7---
0618 4:20 am N 2.9 4.1----30.03- 50.7- 47.5---
0618 4:18 am N 2.9 4.1----30.03- 50.5- 47.3---
0618 4:16 am N 4.1 5.1----30.03- 50.5- 47.3---
0618 4:14 am N 5.1 7.0----30.03- 50.5- 47.3---
0618 4:12 am N 5.1 7.0----30.03- 50.7- 47.5---
0618 4:10 amNNE 6.0 7.0----30.03- 50.7- 47.5---
0618 4:08 am N 5.1 7.0----30.03- 50.7- 47.5---
0618 4:06 am N 5.1 6.0----30.03- 50.9- 47.7---
0618 4:04 am N 5.1 7.0----30.03- 50.7- 47.3---
0618 4:02 am N 5.1 7.0----30.03- 50.5- 47.1---
0618 4:00 am N 5.1 7.0----30.03- 50.7- 47.3---
0618 3:58 am N 5.1 6.0----30.03- 50.7- 47.3---
0618 3:56 am N 5.1 7.0----30.03- 50.9- 47.5---
0618 3:54 am N 5.1 7.0----30.03- 50.9- 47.3---
0618 3:52 am N 6.0 7.0----30.03- 50.7- 47.1---
0618 3:50 amNNE 5.1 6.0----30.03- 50.9- 47.3---
0618 3:48 am N 5.1 7.0----30.03-0.01 51.1- 47.5---
0618 3:46 am N 5.1 6.0----30.03- 51.1- 47.5---
0618 3:44 am N 4.1 5.1----30.03- 51.1- 47.5---
0618 3:42 am N 4.1 5.1----30.03- 51.1- 47.3---
0618 3:40 am N 4.1 5.1----30.03- 51.3- 47.5---
0618 3:38 am N 4.1 5.1----30.04- 51.4- 47.7---
0618 3:36 am N 4.1 5.1----30.03- 51.4- 47.7---
0618 3:34 am N 4.1 5.1----30.03- 51.4- 47.7---
0618 3:32 amNNE 5.1 5.1----30.03- 51.4- 47.5---
0618 3:30 amNNE 4.1 5.1----30.04- 51.6- 47.8---
0618 3:28 amNNE 4.1 5.1----30.04- 51.6- 47.8---
0618 3:26 am N 1.9 5.1----30.04- 51.6- 47.8---
0618 3:24 am N 1.9 2.9----30.04- 51.8- 48.0---
0618 3:22 am N 1.9 2.9----30.04- 51.8- 48.0---
0618 3:20 am N 1.9 1.9----30.04- 51.8- 48.0---
0618 3:18 amNNW 1.9 2.9----30.04- 51.6- 47.8---
0618 3:16 am N 2.9 4.1----30.03- 51.4- 47.5---
0618 3:14 am N 4.1 5.1----30.03- 51.3- 47.3---
0618 3:12 am N 2.9 5.1----30.03- 51.3- 47.3---
0618 3:10 am N 4.1 5.1----30.04- 51.4- 47.5---
0618 3:08 am N 5.1 6.0----30.04- 51.6- 47.7---
0618 3:06 am N 5.1 7.0----30.04- 51.6- 47.7---
0618 3:04 amNNE 6.0 7.0----30.04- 51.8- 47.8---
0618 3:02 am N 5.1 6.0----30.04- 51.6- 47.7---
0618 3:00 am N 6.0 7.0----30.03- 51.6- 47.7---
0618 2:58 am N 5.1 6.0----30.04- 51.6- 47.7---
0618 2:56 am N 5.1 6.0----30.04- 51.6- 47.7---
0618 2:54 am N 5.1 6.0----30.04- 51.6- 47.7---
0618 2:52 am N 5.1 6.0----30.04- 51.4- 47.3---
0618 2:50 am N 5.1 6.0----30.04- 51.4- 47.3---
0618 2:48 amNNE 5.1 5.1----30.04-0.01 51.6- 47.5---
0618 2:46 amNNE 5.1 7.0----30.04- 51.6- 47.5---
0618 2:44 am N 5.1 6.0----30.04- 51.6- 47.3---
0618 2:42 am N 5.1 7.0----30.04- 51.8- 47.7---
0618 2:40 am N 5.1 6.0----30.04- 51.6- 47.3---
0618 2:38 am N 5.1 7.0----30.04- 51.6- 47.3---
0618 2:36 am N 6.0 7.0----30.04- 51.8- 47.5---
0618 2:34 am N 5.1 7.0----30.04- 51.8- 47.5---
0618 2:32 am N 5.1 6.0----30.04- 51.8- 47.5---
0618 2:30 am N 5.1 6.0----30.04- 51.8- 47.3---
0618 2:28 am N 5.1 5.1----30.04- 51.6- 47.1---
0618 2:26 am N 5.1 7.0----30.04- 51.6- 47.1---
0618 2:24 am N 6.0 7.0----30.04- 51.6- 47.1---
0618 2:22 am N 5.1 6.0----30.04- 51.6- 47.1---
0618 2:20 am N 5.1 6.0----30.04- 51.6- 47.1---
0618 2:18 am N 5.1 6.0----30.04- 51.6- 47.1---
0618 2:16 am N 5.1 6.0----30.04- 51.8- 47.3---
0618 2:14 am N 5.1 6.0----30.04- 51.8- 47.1---
0618 2:12 am N 5.1 6.0----30.04- 51.8- 47.1---
0618 2:10 am N 5.1 7.0----30.04- 51.8- 47.1---
0618 2:08 am N 4.1 5.1----30.04- 51.8- 47.1---
0618 2:06 am N 5.1 6.0----30.04- 52.0- 47.3---
0618 2:04 am N 5.1 7.0----30.04- 52.0- 47.1---
0618 2:02 am N 5.1 7.0----30.04- 52.0- 47.1---
0618 2:00 am N 4.1 5.1----30.04- 52.0- 47.1---
0618 1:58 am N 4.1 5.1----30.04- 52.0- 47.1---
0618 1:56 am N 4.1 6.0----30.04- 52.0- 47.1---
0618 1:54 am N 4.1 5.1----30.04- 52.0- 47.1---
0618 1:52 am N 4.1 5.1----30.04- 52.0- 47.1---
0618 1:50 am N 5.1 6.0----30.04- 52.0- 46.9---
0618 1:48 am N 4.1 6.0----30.04+0.00 52.0- 46.9---
0618 1:46 am N 4.1 5.1----30.04- 52.0- 46.9---
0618 1:44 am N 5.1 6.0----30.04- 52.0- 46.9---
0618 1:42 am N 4.1 6.0----30.04- 52.0- 47.1---
0618 1:40 am N 5.1 7.0----30.04- 52.3- 47.5---
0618 1:38 am N 6.0 7.0----30.04- 52.3- 47.3---
0618 1:36 am N 5.1 6.0----30.04- 52.3- 47.3---
0618 1:34 am N 5.1 6.0----30.04- 52.3- 47.3---
0618 1:32 am N 5.1 6.0----30.04- 52.3- 47.3---
0618 1:30 am N 5.1 6.0----30.04- 52.3- 47.3---
0618 1:28 am N 5.1 6.0----30.04- 52.3- 47.1---
0618 1:26 am N 5.1 7.0----30.04- 52.2- 46.9---
0618 1:24 am N 4.1 5.1----30.05- 52.3- 47.1---
0618 1:22 am N 4.1 5.1----30.05- 52.3- 46.9---
0618 1:20 am N 4.1 6.0----30.05- 52.3- 46.9---
0618 1:18 am N 5.1 7.0----30.05- 52.5- 47.1---
0618 1:16 am N 5.1 6.0----30.05- 52.7- 47.3---
0618 1:14 am N 5.1 6.0----30.05- 52.7- 47.1---
0618 1:12 am N 5.1 7.0----30.05- 52.5- 46.9---
0618 1:10 am N 5.1 7.0----30.05- 52.9- 47.3---
0618 1:08 am N 5.1 7.0----30.05- 52.7- 46.9---
0618 1:06 am N 5.1 7.0----30.05- 52.7- 46.8---
0618 1:04 am N 6.0 7.0----30.05- 52.7- 46.8---
0618 1:02 am N 6.0 7.0----30.05- 52.7- 46.8---
0618 1:00 am N 7.0 8.9----30.05- 53.1- 47.1---
061812:58 am N 7.0 8.9----30.05- 53.2- 47.1---
061812:56 am N 7.0 8.0----30.05- 53.1- 47.1---
061812:54 am N 6.0 7.0----30.05- 53.2- 47.3---
061812:52 am N 6.0 7.0----30.05- 53.4- 47.5---
061812:50 am N 7.0 8.0----30.05- 53.1- 47.1---
061812:48 am N 6.0 7.0----30.05+0.02 53.1- 47.1---
061812:46 am N 6.0 7.0----30.05- 53.2- 47.3---
061812:44 am N 5.1 7.0----30.05- 53.2- 47.3---
061812:42 am N 4.1 7.0----30.05- 53.4- 47.5---
061812:40 am N 5.1 7.0----30.05- 53.2- 47.3---
061812:38 am N 5.1 7.0----30.05- 53.4- 47.5---
061812:36 am N 5.1 7.0----30.05- 53.4- 47.5---
061812:34 am N 5.1 7.0----30.05- 53.2- 47.1---
061812:32 am N 5.1 7.0----30.05- 53.2- 46.9---
061812:30 am N 5.1 6.0----30.05- 53.2- 46.9---
061812:28 am N 6.0 7.0----30.05- 53.2- 46.9---
061812:26 am N 6.0 8.0----30.05- 53.2- 46.8---
061812:24 am N 7.0 8.0----30.05- 53.2- 46.8---
061812:22 am N 7.0 8.0----30.05- 53.2- 46.9---
061812:20 am N 6.0 7.0----30.05- 53.4- 46.9---
061812:18 am N 5.1 7.0----30.05- 53.4- 46.9---
061812:16 am N 5.1 7.0----30.05- 53.6- 47.1---
061812:14 am N 6.0 7.0----30.05- 53.6- 46.9---
061812:12 am N 6.0 7.0----30.05- 53.6- 47.1---
061812:10 am N 5.1 7.0----30.05- 53.4- 46.9---
061812:08 am N 5.1 7.0----30.05- 53.4- 46.9---
061812:06 am N 5.1 6.0----30.05- 53.6- 46.9---
061812:04 am N 5.1 6.0----30.05- 53.6- 46.8---
061812:02 am N 5.1 6.0----30.05- 53.6- 46.9---
061812:00 am N 5.1 7.0----30.05- 53.6- 46.9---
061711:58 pm N 5.1 6.0----30.05- 53.8- 47.3---
061711:56 pm N 5.1 6.0----30.05- 53.8- 47.1---
061711:54 pm N 6.0 7.0----30.05- 53.6- 46.8---
061711:52 pm N 5.1 7.0----30.05- 53.6- 46.9---
061711:50 pm N 5.1 6.0----30.05- 53.6- 47.1---
061711:48 pm N 2.9 5.1----30.05+0.05 53.6- 47.3---
061711:46 pm N 2.9 4.1----30.05- 53.6- 47.3---
061711:44 pm N 1.9 4.1----30.05- 53.8- 47.5---
061711:42 pmNNW 1.9 1.9----30.05- 54.0- 47.7---
061711:40 pm N 1.9 2.9----30.05- 54.0- 47.3---
061711:38 pm N 2.9 4.1----30.05- 54.0- 47.1---
061711:36 pm N 1.9 2.9----30.05- 54.1- 47.3---
061711:34 pm N 4.1 5.1----30.05- 54.1- 47.1---
061711:32 pm N 4.1 5.1----30.05- 54.0- 46.9---
061711:30 pm N 4.1 5.1----30.05- 54.1- 46.9---
061711:28 pm N 5.1 6.0----30.05- 54.1- 46.9---
061711:26 pm N 5.1 7.0----30.05- 54.0- 46.8---
061711:24 pm N 5.1 7.0----30.05- 54.1- 46.9---
061711:22 pm N 5.1 7.0----30.05- 54.1- 46.8---
061711:20 pm N 5.1 7.0----30.05- 54.3- 46.9---
061711:18 pm N 5.1 7.0----30.05- 54.3- 47.1---
061711:16 pm N 6.0 7.0----30.05- 54.3- 47.1---
061711:14 pm N 6.0 7.0----30.05- 54.3- 47.1---
061711:12 pm N 5.1 7.0----30.05- 54.5- 47.3---
061711:10 pm N 2.9 5.1----30.05- 54.5- 47.5---
061711:08 pm N 1.9 4.1----30.05- 54.5- 47.8---
061711:06 pm N 2.9 5.1----30.05- 54.5- 47.3---
061711:04 pm N 4.1 5.1----30.05- 54.5- 47.3---
061711:02 pm N 4.1 5.1----30.05- 54.5- 47.3---
061711:00 pm N 4.1 5.1----30.05- 54.5- 47.5---
061710:58 pm N 2.9 5.1----30.05- 54.5- 47.7---
061710:56 pm N 2.9 5.1----30.05- 54.5- 47.5---
061710:54 pmNNE 5.1 6.0----30.05- 54.7- 47.5---
061710:52 pmNNE 5.1 6.0----30.05- 54.5- 47.3---
061710:50 pm N 4.1 5.1----30.05- 54.9- 47.5---
061710:48 pm N 4.1 5.1----30.05+0.06 55.0- 47.8---
061710:46 pm N 2.9 5.1----30.05- 55.0- 47.8---
061710:44 pm N 2.9 4.1----30.05- 55.2- 48.0---
061710:42 pm N 1.9 4.1----30.05- 55.4- 48.0---
061710:40 pm- 0.0 1.9----30.05- 55.4- 47.8---
061710:38 pm N 1.9 2.9----30.04- 55.6- 48.0---
061710:36 pm N 1.9 1.9----30.04- 55.8- 47.8---
061710:34 pm NW 1.0 1.9----30.04- 55.6- 47.7---
061710:32 pm NW 1.0 1.9----30.04- 55.8- 47.7---
061710:30 pmNNW 1.0 1.9----30.04- 55.8- 47.8---
061710:28 pm NW 1.9 2.9----30.04- 55.8- 47.8---
061710:26 pm NW 2.9 4.1----30.04- 55.6- 47.7---
061710:24 pm NW 2.9 5.1----30.04- 55.9- 48.2---
061710:22 pm N 1.9 1.9----30.04- 56.3- 48.0---
061710:20 pm N 1.9 2.9----30.04- 56.3- 48.0---
061710:18 pmNNE 2.9 4.1----30.04- 56.3- 48.0---
061710:16 pmNNE 4.1 5.1----30.04- 56.3- 47.7---
061710:14 pmNNE 4.1 5.1----30.04- 56.3- 47.8---
061710:12 pm N 1.9 4.1----30.04- 56.3- 48.0---
061710:10 pm N 1.9 4.1----30.04- 56.3- 47.8---
061710:08 pmNNE 4.1 5.1----30.04- 56.3- 47.8---
061710:06 pmNNE 2.9 4.1----30.04- 56.1- 47.7---
061710:04 pm N 2.9 4.1----30.04- 56.1- 47.7---
061710:02 pm N 2.9 4.1----30.04- 56.1- 47.7---
061710:00 pm N 1.9 4.1----30.03- 56.3- 47.7---
0617 9:58 pm N 1.9 2.9----30.03- 56.5- 47.7---
0617 9:56 pm N 1.9 1.9----30.03- 56.5- 47.5---
0617 9:54 pm N 1.9 2.9----30.03- 56.5- 47.5---
0617 9:52 pm N 1.0 1.9----30.03- 56.8- 47.5---
0617 9:50 pmNNW 1.9 4.1----30.03- 56.8- 46.9---

Solar Radiation Conditions at CPXC1 as of
(9:56 pm PDT on 06/18/2018)
0456 GMT on 06/19/2018:
     

Click on the graph icon in the table below to see a time series plot of the last five days of that observation.

5-day plot - Short Wave Radiation 1Short Wave Radiation 1 (SRAD1): 0.4watts/meter2
Previous observations
5-day plot - Short Wave Radiation 1 5-day plot - Short Wave Radiation 2 5-day plot - Long Wave Radiation
MM   DD    TIME
(PDT)
  SRAD1
w/m2
   SWRAD
w/m2
    LWRAD
w/m2
06189:46 pm 0.4--
06189:36 pm 0.4--
06189:24 pm 0.4--
06189:14 pm 0.4--
06189:04 pm 0.4--
06188:54 pm 0.4--
06188:44 pm 0.4--
06188:34 pm 0.4--
06188:24 pm 0.4--
06188:14 pm 5.1--
06188:04 pm 5.1--
06187:54 pm 33.3--
06187:44 pm 56.8--
06187:34 pm 75.6--
06187:24 pm 113.2--
06187:12 pm 146.1--
06187:02 pm 183.8--
06186:52 pm 226.1--
06186:42 pm 259.0--
06186:32 pm 315.4--
06186:22 pm 357.7--
06186:12 pm 414.1--
06186:02 pm 461.1--
06185:52 pm 503.4--
06185:42 pm 541.0--
06185:32 pm 583.3--
06185:22 pm 620.9--
06185:10 pm 668.0--
06185:00 pm 700.9--
06184:50 pm 738.5--
06184:40 pm 780.8--
06184:30 pm 799.6--
06184:20 pm 832.5--
06184:10 pm 865.4--
06184:00 pm 884.2--
06183:50 pm 917.1--
06183:40 pm 954.7--
06183:28 pm 968.8--
06183:18 pm 987.6--
06183:08 pm1015.8--
06182:58 pm1053.4--
06182:48 pm1067.5--
06182:38 pm1091.0--
06182:28 pm1114.5--
06182:18 pm1147.5--
06182:08 pm1161.6--
06181:58 pm1180.4--
06181:48 pm1194.5--
06181:36 pm1185.1--
06181:26 pm1161.6--
06181:16 pm1171.0--
06181:06 pm1185.1--
061812:56 pm1203.9--
061812:46 pm1208.6--
061812:36 pm1208.6--
061812:26 pm1203.9--
061812:16 pm1185.1--
061812:06 pm1175.7--
061811:56 am1152.2--
061811:46 am1142.8--
061811:34 am1114.5--
061811:24 am1086.3--
061811:14 am1053.4--
061811:04 am1025.2--
061810:54 am 987.6--
061810:44 am 954.7--
061810:34 am 874.8--
061810:24 am 903.0--
061810:14 am 879.5--
061810:04 am 851.3--
06189:54 am 818.4--
06189:42 am 776.1--
06189:32 am 743.2--
06189:22 am 710.3--
06189:12 am 682.1--
06189:02 am 653.9--
06188:52 am 616.2--
06188:42 am 583.3--
06188:32 am 545.7--
06188:22 am 498.7--
06188:12 am 442.3--
06188:02 am 376.5--
06187:52 am 334.2--
06187:42 am 296.6--
06187:30 am 254.3--
06187:20 am 216.7--
06187:10 am 183.8--
06187:00 am 160.3--
06186:50 am 127.3--
06186:40 am 99.1--
06186:30 am 70.9--
06186:20 am 42.7--
06186:10 am 19.2--
06186:00 am 9.8--
06185:50 am 5.1--
06185:40 am 0.4--
06185:28 am 0.4--
06185:18 am 0.4--
06185:08 am 0.4--
06184:58 am 0.4--
06184:48 am 0.4--
06184:38 am 0.4--
06184:28 am 0.4--
06184:18 am 0.4--
06184:08 am 0.4--
06183:58 am 0.4--
06183:48 am 0.4--
06183:38 am 0.4--
06183:26 am 0.4--
06183:16 am 0.4--
06183:06 am 0.4--
06182:56 am 0.4--
06182:46 am 0.4--
06182:36 am 0.4--
06182:26 am 0.4--
06182:16 am 0.4--
06182:06 am 0.4--
06181:56 am 0.4--
06181:46 am 0.4--
06181:36 am 0.4--
06181:24 am 0.4--
06181:14 am 0.4--
06181:04 am 0.4--
061812:54 am 0.4--
061812:44 am 0.4--
061812:34 am 0.4--
061812:24 am 0.4--
061812:14 am 0.4--
061812:04 am 0.4--
061711:54 pm 0.4--
061711:34 pm 0.4--
061711:24 pm 0.4--
061711:12 pm 0.4--
061711:02 pm 0.4--
061710:52 pm 0.4--
061710:42 pm 0.4--
061710:22 pm 0.4--
061710:12 pm 0.4--
061710:02 pm 0.4--

Description of Measurements

Links which are specific to this station are listed below:

Real Time Data in tabular form for the last forty-five days.

Historical Data & Climatic Summaries for quality controlled data for the current month, previous months, and previous years.